TimeEST,TemperatureF,Dew PointF,Humidity,Sea Level PressureIn,VisibilityMPH,Wind Direction,Wind SpeedMPH,Gust SpeedMPH,PrecipitationIn,Events,Conditions,WindDirDegrees,DateUTC
12:53 AM,57.9,46.0,65,30.00,10.0,WNW,8.1,-,N/A,,Overcast,300,2013-03-02 05:53:00
1:53 AM,57.0,43.0,59,30.00,10.0,NW,9.2,-,N/A,,Overcast,310,2013-03-02 06:53:00
2:53 AM,55.9,42.1,60,29.99,10.0,NW,13.8,-,0.00,,Overcast,310,2013-03-02 07:53:00
3:53 AM,55.9,39.9,55,30.00,10.0,NW,13.8,-,N/A,,Overcast,310,2013-03-02 08:53:00
4:53 AM,55.0,39.9,57,30.00,10.0,NW,13.8,23.0,N/A,,Overcast,310,2013-03-02 09:53:00
6:53 AM,55.0,41.0,59,30.05,10.0,NW,9.2,-,N/A,,Overcast,320,2013-03-02 11:53:00
7:53 AM,55.0,42.1,62,30.05,10.0,North,17.3,-,N/A,,Overcast,350,2013-03-02 12:53:00
8:53 AM,55.0,39.9,57,30.06,10.0,North,15.0,20.7,N/A,,Overcast,350,2013-03-02 13:53:00
9:53 AM,57.0,39.9,53,30.06,10.0,North,6.9,-,N/A,,Mostly Cloudy,360,2013-03-02 14:53:00
10:53 AM,57.0,37.9,49,30.06,10.0,North,4.6,-,N/A,,Overcast,350,2013-03-02 15:53:00
11:53 AM,61.0,37.0,41,30.04,10.0,NW,12.7,-,N/A,,Overcast,320,2013-03-02 16:53:00
12:53 PM,64.9,39.0,39,30.01,10.0,NW,12.7,23.0,N/A,,Scattered Clouds,310,2013-03-02 17:53:00
1:53 PM,68.0,41.0,37,29.99,10.0,NW,19.6,24.2,N/A,,Clear,320,2013-03-02 18:53:00
2:53 PM,66.0,39.0,37,29.98,10.0,WNW,23.0,29.9,N/A,,Partly Cloudy,300,2013-03-02 19:53:00
3:53 PM,66.0,37.9,36,29.99,10.0,NW,19.6,27.6,N/A,,Clear,310,2013-03-02 20:53:00
4:53 PM,63.0,37.9,40,29.99,10.0,WNW,17.3,23.0,N/A,,Partly Cloudy,290,2013-03-02 21:53:00
5:53 PM,60.1,37.0,42,30.01,10.0,WNW,12.7,21.9,N/A,,Clear,290,2013-03-02 22:53:00
6:53 PM,59.0,39.0,48,30.03,10.0,WNW,8.1,-,N/A,,Clear,300,2013-03-02 23:53:00
8:53 PM,55.0,39.0,55,30.06,10.0,NW,4.6,-,N/A,,Clear,320,2013-03-03 01:53:00
9:53 PM,55.0,41.0,59,30.07,10.0,NW,4.6,-,N/A,,Clear,310,2013-03-03 02:53:00
10:53 PM,55.0,41.0,59,30.06,10.0,Calm,Calm,-,N/A,,Clear,0,2013-03-03 03:53:00
11:53 PM,54.0,42.1,64,30.04,10.0,WNW,3.5,-,N/A,,Clear,290,2013-03-03 04:53:00